1513652400.27,57876,6.0,73154.5,-17.05,-43.67,-44.13,0,*6C
1513652401.54,57877,5.94,73150.3,-17.05,-43.67,-44.21,0,*6C
1513652402.82,57878,5.94,73148.0,-17.05,-43.67,-44.21,0,*63
1513652404.09,57879,6.0,73152.0,-17.03,-43.61,-44.33,0,*61
1513652405.34,57880,6.0,73154.8,-17.03,-43.61,-44.27,0,*62
1513652406.55,57881,5.94,73150.8,-17.05,-43.75,-44.41,0,*60
1513652407.82,57882,5.94,73148.0,-17.05,-43.67,-44.33,0,*65
1513652409.09,57883,5.94,73150.5,-17.03,-43.67,-44.27,0,*67
1513652410.36,57884,5.94,73148.8,-17.05,-43.55,-44.13,0,*60
1513652411.63,57885,6.0,73152.3,-17.05,-43.67,-44.21,0,*61
1513652412.9,57886,5.94,73152.3,-17.05,-43.55,-44.21,0,*63
1513652414.17,57887,6.0,73154.5,-17.05,-43.67,-44.21,0,*63
1513652415.41,57888,5.94,73150.5,-17.05,-43.75,-44.21,0,*6F
1513652416.66,57889,5.94,73150.5,-17.05,-43.49,-44.01,0,*63
1513652417.92,57890,5.94,73150.5,-17.05,-43.55,-44.13,0,*65
1513652419.21,57891,5.94,73150.3,-17.07,-43.81,-44.33,0,*6D
1513652420.51,57892,6.0,73154.0,-17.07,-43.67,-44.33,0,*66
1513652421.8,57893,5.94,73150.3,-17.07,-43.67,-44.33,0,*67
1513652423.07,57894,5.94,73148.5,-17.07,-43.49,-44.01,0,*6D
1513652424.34,57895,5.94,73146.8,-17.09,-43.55,-44.21,0,*6D
1513652425.64,57896,6.0,73150.8,-17.07,-43.67,-44.21,0,*61
1513652426.86,57897,6.0,73150.0,-17.09,-43.61,-44.27,0,*6E
1513652428.15,57898,6.0,73150.3,-17.07,-43.55,-44.13,0,*6F
1513652429.4,57899,5.94,73146.8,-17.09,-43.61,-44.21,0,*66
1513652430.62,57900,5.94,73146.0,-17.09,-43.75,-44.27,0,*64
1513652431.84,57901,6.0,73150.0,-17.09,-43.75,-44.07,0,*67
1513652433.09,57902,5.94,73148.5,-17.11,-43.75,-44.27,0,*6F
1513652434.3,57903,6.0,73148.8,-17.09,-43.41,-44.07,0,*62
1513652435.55,57904,6.0,73148.5,-17.09,-43.75,-44.21,0,*66
1513652436.77,57905,5.94,73144.8,-17.09,-43.75,-44.07,0,*63
1513652438.02,57906,5.94,73138.8,-17.09,-43.61,-44.21,0,*61
1513652439.25,57907,6.0,73150.8,-17.09,-43.61,-44.27,0,*66
1513652440.51,57908,5.94,73150.0,-17.09,-43.81,-44.21,0,*61
1513652441.73,57909,6.0,73154.0,-17.09,-43.75,-44.27,0,*6D
1513652442.95,57910,5.94,73148.5,-17.09,-43.61,-44.07,0,*62
1513652444.22,57911,6.0,73150.5,-17.11,-43.55,-44.07,0,*6D
1513652445.49,57912,5.94,73144.8,-17.11,-43.61,-44.21,0,*6D
1513652446.74,57913,5.94,73146.5,-17.13,-43.61,-44.13,0,*6F
1513652448.01,57914,5.94,73148.0,-17.11,-43.75,-44.21,0,*6E
1513652449.23,57915,5.94,73144.0,-17.13,-43.49,-44.27,0,*64
1513652450.53,57916,5.94,73148.3,-17.11,-43.55,-44.21,0,*6E
1513652451.77,57917,5.94,73148.5,-17.11,-43.61,-44.07,0,*6C
1513652453.07,57918,5.94,73148.8,-17.11,-43.55,-44.21,0,*60
1513652454.33,57919,6.0,73150.8,-17.13,-43.81,-44.33,0,*69
1513652455.58,57920,6.0,73150.3,-17.11,-43.61,-44.27,0,*6A
1513652456.85,57921,6.0,73150.0,-17.11,-43.61,-44.21,0,*6D
1513652458.07,57922,5.94,73148.0,-17.13,-43.87,-44.27,0,*62
1513652459.31,57923,5.94,73148.3,-17.13,-43.67,-44.27,0,*6D
1513652460.55,57924,6.0,73154.5,-17.13,-43.81,-44.27,0,*62
1513652461.81,57925,6.0,73154.8,-17.13,-43.81,-44.47,0,*65
1513652463.08,57926,5.94,73150.3,-17.13,-43.67,-44.33,0,*6D
1513652464.34,57927,5.94,73150.3,-17.13,-43.67,-44.13,0,*6E
1513652465.59,57928,6.0,73148.5,-17.13,-43.49,-44.13,0,*6D
1513652466.85,57929,6.0,73148.3,-17.13,-43.81,-44.33,0,*6A
1513652468.12,57930,5.94,73146.3,-17.13,-43.67,-44.33,0,*6A
1513652469.41,57931,5.94,73146.8,-17.17,-43.81,-44.33,0,*67
1513652470.67,57932,5.94,73146.8,-17.17,-43.61,-44.33,0,*6A
1513652471.96,57933,5.94,73144.8,-17.17,-43.67,-44.33,0,*6D
1513652473.25,57934,5.94,73146.3,-17.21,-43.67,-44.33,0,*6F
1513652474.53,57935,6.0,73148.8,-17.17,-43.67,-44.33,0,*6B
1513652475.82,57936,5.94,73146.5,-17.17,-43.81,-44.33,0,*60
1513652477.09,57937,6.0,73148.3,-17.17,-43.67,-44.27,0,*6C
1513652478.35,57938,5.94,73146.5,-17.21,-43.75,-44.33,0,*60
1513652479.64,57939,5.94,73146.8,-17.21,-43.67,-44.21,0,*61
1513652480.92,57940,5.94,73148.3,-17.21,-43.67,-44.01,0,*6D
1513652482.19,57941,5.94,73146.8,-17.17,-43.67,-44.27,0,*6D
1513652483.45,57942,5.94,73148.8,-17.21,-43.75,-44.21,0,*6E
1513652484.74,57943,5.94,73150.0,-17.21,-43.67,-44.33,0,*6F
1513652485.98,57944,5.94,73150.0,-17.17,-43.61,-44.27,0,*6E
1513652487.25,57945,5.94,73148.3,-17.21,-43.75,-44.33,0,*6A
1513652488.53,57946,6.0,73150.5,-17.21,-43.55,-44.33,0,*6B
1513652489.82,57947,6.0,73154.5,-17.21,-43.55,-44.33,0,*6A
1513652491.03,57948,5.94,73148.5,-17.23,-43.75,-44.41,0,*60
1513652492.26,57949,6.0,73150.8,-17.23,-43.81,-44.41,0,*6A
1513652493.5,57950,5.94,73150.3,-17.23,-43.75,-44.47,0,*6F
1513652494.73,57951,5.94,73152.0,-17.23,-43.81,-44.41,0,*63
1513652495.98,57952,5.94,73150.3,-17.23,-43.81,-44.47,0,*66
1513652497.2,57953,5.94,73150.5,-17.23,-43.75,-44.41,0,*6A
1513652498.41,57954,5.94,73150.0,-17.23,-43.75,-44.41,0,*6D
1513652499.63,57955,5.94,73152.5,-17.23,-43.61,-44.27,0,*69
1513652500.87,57956,5.94,73150.8,-17.23,-43.41,-44.01,0,*6C
1513652502.08,57957,5.94,73152.0,-17.23,-43.61,-44.07,0,*69
1513652503.33,57958,5.94,73148.3,-17.25,-43.61,-44.27,0,*62
1513652504.55,57959,5.94,73148.8,-17.23,-43.61,-44.07,0,*67
1513652505.76,57960,5.94,73148.3,-17.23,-43.41,-44.07,0,*6F
1513652507.0,57961,6.0,73150.8,-17.23,-43.55,-44.07,0,*6B
1513652508.23,57962,5.94,73146.8,-17.23,-43.55,-44.07,0,*68
1513652509.47,57963,5.94,73146.3,-17.23,-43.55,-44.07,0,*69
1513652510.69,57964,5.94,73148.3,-17.23,-43.61,-44.27,0,*6B
1513652511.91,57965,5.94,73148.0,-17.23,-43.61,-44.07,0,*68
1513652513.13,57966,6.0,73150.0,-17.23,-43.61,-44.07,0,*6B
1513652514.34,57967,5.94,73148.0,-17.23,-43.61,-44.07,0,*6A
1513652515.56,57968,6.0,73152.3,-17.23,-43.61,-44.07,0,*65
1513652516.78,57969,5.94,73148.5,-17.23,-43.61,-44.07,0,*64
1513652518.0,57970,5.94,73148.5,-17.23,-43.61,-44.07,0,*6C
1513652519.23,57971,5.94,73148.8,-17.25,-43.75,-44.07,0,*6E
1513652520.5,57972,5.94,73152.0,-17.25,-43.61,-44.01,0,*6E
1513652521.74,57973,5.94,73148.8,-17.25,-43.75,-44.27,0,*6E
1513652522.96,57974,5.94,73150.8,-17.23,-43.61,-44.07,0,*68
1513652524.2,57975,5.94,73152.0,-17.25,-43.61,-44.07,0,*6F
1513652525.43,57976,5.94,73148.8,-17.23,-43.95,-44.47,0,*65
1513652526.65,57977,5.94,73148.5,-17.23,-43.75,-44.07,0,*6E
1513652527.89,57978,5.94,73150.8,-17.25,-43.61,-44.07,0,*62
1513652529.13,57979,6.0,73154.0,-17.25,-43.75,-44.27,0,*64
1513652530.41,57980,5.94,73150.0,-17.25,-43.81,-44.47,0,*6F
1513652531.67,57981,5.94,73148.0,-17.25,-43.81,-44.41,0,*68
1513652532.9,57982,6.0,73152.5,-17.25,-43.75,-44.27,0,*60
1513652534.14,57983,5.94,73148.5,-17.23,-43.81,-44.41,0,*6C
1513652535.4,57984,5.94,73148.0,-17.25,-43.81,-44.27,0,*6D
1513652536.68,57985,5.94,73148.0,-17.25,-43.81,-44.47,0,*6A
1513652537.94,57986,5.94,73136.3,-17.25,-43.81,-44.41,0,*6F
1513652539.17,57987,5.94,73138.0,-17.25,-43.75,-44.41,0,*65
1513652540.43,57988,5.94,73148.3,-17.25,-43.75,-44.47,0,*6C
1513652541.67,57989,5.94,73154.0,-17.25,-43.61,-44.27,0,*6E
1513652542.91,57990,5.94,73148.0,-17.25,-43.61,-44.27,0,*66
1513652544.16,57991,5.94,73148.5,-17.25,-43.75,-44.27,0,*62
1513652545.4,57992,5.94,73148.5,-17.25,-43.61,-44.27,0,*64
1513652546.63,57993,5.94,73144.3,-17.27,-43.75,-44.47,0,*64
1513652547.86,57994,5.94,73148.0,-17.27,-43.61,-44.27,0,*60
1513652549.07,57995,5.94,73150.3,-17.27,-43.75,-44.41,0,*64
1513652550.31,57996,6.0,73152.5,-17.27,-43.75,-44.47,0,*61
1513652551.53,57997,5.94,73148.5,-17.27,-43.75,-44.41,0,*66
1513652552.75,57998,5.94,73148.0,-17.27,-43.61,-44.07,0,*6E
1513652553.99,57999,5.94,73150.8,-17.27,-43.75,-44.47,0,*6E
1513652555.22,58000,5.94,73150.8,-17.27,-43.81,-44.41,0,*65
1513652556.44,58001,5.94,73144.5,-17.27,-43.61,-44.07,0,*68
1513652557.7,58002,5.94,73146.0,-17.29,-43.81,-44.53,0,*6A
1513652558.96,58003,5.94,73150.3,-17.29,-43.87,-44.47,0,*68
1513652560.22,58004,5.94,73150.3,-17.29,-43.61,-44.13,0,*66
1513652561.47,58005,5.94,73146.3,-17.29,-43.61,-44.07,0,*62
1513652562.73,58006,5.94,73144.8,-17.27,-43.55,-44.01,0,*6E
1513652563.97,58007,5.94,73148.5,-17.27,-43.61,-44.47,0,*6A
1513652565.26,58008,5.94,73146.3,-17.29,-43.67,-44.33,0,*6E
1513652566.52,58009,5.94,73148.3,-17.29,-43.81,-44.53,0,*61
1513652567.81,58010,5.94,73146.3,-17.29,-43.81,-44.33,0,*6F
1513652569.06,58011,5.94,73148.5,-17.29,-43.81,-44.53,0,*68
1513652570.34,58012,6.0,73148.8,-17.29,-43.81,-44.47,0,*6E
1513652571.63,58013,5.94,73150.0,-17.29,-43.67,-44.47,0,*67
1513652572.89,58014,5.94,73148.5,-17.29,-44.01,-44.53,0,*62
1513652574.13,58015,5.94,73148.0,-17.27,-43.61,-44.47,0,*69
1513652575.41,58016,5.94,73150.0,-17.29,-43.81,-44.47,0,*6A
1513652576.65,58017,5.94,73150.5,-17.27,-43.81,-44.41,0,*63
1513652577.91,58018,5.94,73150.0,-17.31,-43.81,-44.33,0,*6E
1513652579.16,58019,5.94,73148.8,-17.31,-43.67,-44.47,0,*64
1513652580.42,58020,5.94,73150.3,-17.31,-43.81,-44.47,0,*66
1513652581.65,58021,5.94,73150.5,-17.31,-43.81,-44.53,0,*62
1513652582.88,58022,5.94,73150.5,-17.31,-43.87,-44.47,0,*62
1513652584.13,58023,5.94,73150.0,-17.31,-43.81,-44.67,0,*67
1513652585.39,58024,5.94,73150.0,-17.31,-43.81,-44.33,0,*61
1513652586.68,58025,5.94,73148.5,-17.33,-43.67,-44.21,0,*69
1513652587.95,58026,5.94,73150.5,-17.31,-43.67,-44.33,0,*6B
1513652589.18,58027,5.94,73146.0,-17.33,-43.75,-44.41,0,*6E
1513652590.42,58028,5.94,73146.8,-17.31,-43.49,-44.13,0,*6B
1513652591.66,58029,6.0,73146.0,-17.31,-43.61,-44.33,0,*62
1513652592.92,58030,5.94,73144.3,-17.31,-43.67,-44.47,0,*6F
1513652594.16,58031,5.94,73144.3,-17.33,-43.75,-44.41,0,*69
1513652595.39,58032,5.94,73144.5,-17.33,-43.75,-44.41,0,*6A
1513652596.63,58033,5.94,73142.8,-17.33,-43.75,-44.61,0,*69
1513652597.89,58034,6.0,73142.8,-17.31,-43.81,-44.47,0,*63
1513652599.15,58035,5.94,73140.3,-17.31,-43.67,-44.33,0,*69
1513652600.41,58036,5.94,73146.5,-17.31,-43.67,-44.47,0,*69
1513652601.64,58037,6.0,73150.5,-17.33,-43.75,-44.41,0,*6F
1513652602.9,58038,5.94,73144.8,-17.33,-43.67,-44.41,0,*63
1513652604.16,58039,5.94,73152.3,-17.31,-43.81,-44.47,0,*6E
1513652605.37,58040,5.94,73154.0,-17.31,-43.75,-44.61,0,*6F
1513652606.63,58041,5.94,73148.3,-17.31,-43.67,-44.33,0,*6A
1513652607.89,58042,5.94,73150.8,-17.33,-43.67,-44.41,0,*6E
1513652609.16,58043,5.94,73146.8,-17.31,-43.67,-44.33,0,*68
1513652610.4,58044,5.94,73150.8,-17.31,-43.61,-44.13,0,*6B
1513652611.66,58045,5.94,73150.8,-17.33,-43.67,-44.41,0,*69
1513652612.89,58046,6.0,73154.0,-17.31,-43.81,-44.53,0,*63
1513652614.12,58047,5.94,73150.8,-17.33,-43.87,-44.61,0,*67
1513652615.35,58048,5.94,73150.8,-17.33,-43.95,-44.53,0,*6A
1513652616.59,58049,5.94,73148.0,-17.33,-43.75,-44.61,0,*64
1513652617.83,58050,5.94,73150.8,-17.33,-43.75,-44.41,0,*6E
1513652619.09,58051,5.94,73150.3,-17.33,-43.87,-44.33,0,*67
1513652620.35,58052,6.0,73154.8,-17.31,-43.67,-44.33,0,*68
1513652621.58,58053,5.94,73150.0,-17.33,-43.87,-44.53,0,*63
1513652622.84,58054,5.94,73150.3,-17.33,-43.75,-44.73,0,*6B
1513652624.08,58055,6.0,73154.5,-17.33,-43.75,-44.41,0,*6B
1513652625.32,58056,5.94,73150.8,-17.33,-43.75,-44.41,0,*68
1513652626.56,58057,5.94,73148.0,-17.33,-43.75,-44.61,0,*6B
1513652627.79,58058,5.94,73152.3,-17.33,-43.75,-44.41,0,*66
1513652629.08,58059,5.94,73150.5,-17.33,-43.67,-44.21,0,*62
1513652630.34,58060,5.94,73148.5,-17.33,-43.95,-44.73,0,*62
1513652631.58,58061,6.0,73148.3,-17.33,-43.95,-44.79,0,*69
1513652632.82,58062,5.94,73144.5,-17.33,-44.07,-44.61,0,*6F
1513652634.03,58063,5.94,73146.3,-17.35,-43.75,-44.53,0,*6B
1513652635.24,58064,5.94,73146.8,-17.35,-43.75,-44.53,0,*6C
1513652636.45,58065,5.94,73146.5,-17.35,-43.75,-44.53,0,*6D
1513652637.69,58066,5.94,73140.8,-17.35,-43.95,-44.73,0,*62
1513652638.9,58067,5.94,73146.3,-17.35,-44.07,-44.61,0,*6C
1513652640.12,58068,5.94,73144.3,-17.35,-44.07,-44.79,0,*6A
1513652641.33,58069,5.94,73138.8,-17.35,-43.95,-44.61,0,*6E
1513652642.54,58070,5.94,73140.0,-17.35,-43.87,-44.53,0,*64
1513652643.74,58071,5.94,73150.3,-17.35,-43.87,-44.61,0,*64
1513652644.98,58072,5.94,73148.3,-17.35,-43.95,-44.67,0,*62
1513652646.21,58073,5.94,73150.0,-17.35,-43.81,-44.61,0,*60
1513652647.42,58074,5.94,73148.3,-17.35,-43.87,-44.61,0,*61
1513652648.63,58075,5.94,73148.5,-17.35,-43.95,-44.79,0,*6A
1513652649.84,58076,5.94,73148.3,-17.35,-43.87,-44.53,0,*62
1513652651.04,58077,5.94,73150.3,-17.35,-43.87,-44.61,0,*62
1513652652.26,58078,5.94,73146.0,-17.35,-43.49,-44.41,0,*6D
1513652653.49,58079,5.94,73148.8,-17.35,-43.67,-44.41,0,*60
1513652654.71,58080,5.94,73148.0,-17.35,-43.75,-44.53,0,*66
1513652655.92,58081,6.0,73150.0,-17.35,-43.75,-44.53,0,*67
1513652657.17,58082,5.94,73144.0,-17.37,-43.75,-44.47,0,*63
1513652658.38,58083,5.94,73146.5,-17.35,-43.87,-44.53,0,*68
1513652659.59,58084,5.94,73148.3,-17.35,-43.87,-44.53,0,*6F
1513652660.84,58085,5.94,73146.3,-17.37,-43.81,-44.61,0,*6B
1513652662.1,58086,5.94,73146.8,-17.37,-43.81,-44.61,0,*68
1513652663.36,58087,5.94,73150.0,-17.37,-43.95,-44.67,0,*6A
1513652664.59,58088,5.94,73140.8,-17.37,-43.95,-44.79,0,*6A
1513652665.8,58089,5.94,73140.0,-17.35,-43.75,-44.53,0,*6F
1513652667.01,58090,5.94,73140.0,-17.35,-43.87,-44.53,0,*6A
1513652668.27,58091,5.94,73144.0,-17.37,-43.81,-44.61,0,*6E
1513652669.55,58092,5.94,73144.8,-17.37,-43.81,-44.67,0,*6B
1513652670.82,58093,5.94,73144.0,-17.37,-43.81,-44.67,0,*6A
1513652672.03,58094,5.94,73148.5,-17.35,-43.87,-44.79,0,*66
1513652673.29,58095,5.94,73144.8,-17.37,-44.01,-44.79,0,*6C
1513652674.56,58096,5.94,73146.0,-17.37,-44.13,-44.87,0,*6D
1513652675.82,58097,5.94,73146.8,-17.37,-44.13,-44.87,0,*6C
1513652677.09,58098,5.94,73144.8,-17.37,-44.01,-44.87,0,*60
1513652678.33,58099,5.94,73146.8,-17.35,-43.95,-44.93,0,*6C
1513652679.56,58100,5.94,73146.3,-17.37,-43.95,-44.79,0,*6B
1513652680.78,58101,5.94,73146.5,-17.39,-43.95,-44.79,0,*64
1513652682.02,58102,6.0,73148.8,-17.39,-44.01,-44.87,0,*6C
1513652683.24,58103,5.94,73146.5,-17.43,-44.07,-44.87,0,*66
1513652684.52,58104,5.94,73144.5,-17.43,-44.21,-44.93,0,*60
1513652685.76,58105,5.94,73144.0,-17.43,-43.87,-44.67,0,*61
1513652686.97,58106,5.94,73146.0,-17.39,-43.95,-44.79,0,*63
1513652688.2,58107,5.94,73144.5,-17.39,-43.81,-44.61,0,*6E
1513652689.42,58108,5.94,73150.8,-17.39,-43.95,-44.87,0,*6C
1513652690.67,58109,5.94,73148.3,-17.43,-44.07,-44.93,0,*69
1513652691.9,58110,5.94,73152.0,-17.39,-44.13,-44.79,0,*6D
1513652693.15,58111,5.94,73150.8,-17.43,-44.01,-44.87,0,*63
1513652694.4,58112,5.94,73146.8,-17.43,-44.07,-44.93,0,*63
1513652695.64,58113,5.94,73150.8,-17.39,-44.13,-44.87,0,*6F
1513652696.91,58114,5.94,73150.0,-17.43,-44.01,-44.73,0,*6D
1513652698.13,58115,5.94,73144.3,-17.43,-43.87,-44.87,0,*6E
1513652699.37,58116,5.94,73148.3,-17.43,-43.87,-44.73,0,*66
1513652700.62,58117,5.94,73148.3,-17.39,-44.01,-44.87,0,*68
1513652701.83,58118,5.94,73146.8,-17.39,-43.95,-44.79,0,*6C
1513652703.05,58119,5.94,73146.8,-17.43,-44.07,-44.87,0,*6D
1513652704.27,58120,5.94,73146.3,-17.39,-43.95,-44.87,0,*66
1513652705.54,58121,5.94,73144.0,-17.43,-44.21,-45.07,0,*6B
1513652706.79,58122,5.94,73150.8,-17.43,-44.21,-45.13,0,*6D
1513652708.04,58123,5.94,73150.0,-17.43,-44.21,-45.13,0,*6C
1513652709.26,58124,5.94,73144.8,-17.43,-44.07,-44.87,0,*63
1513652710.51,58125,5.94,73144.5,-17.43,-44.01,-44.87,0,*64
1513652711.76,58126,5.94,73144.0,-17.43,-44.01,-44.87,0,*67
1513652713.03,58127,5.94,73146.5,-17.43,-44.01,-44.93,0,*63
1513652714.28,58128,5.94,73146.5,-17.43,-44.21,-45.13,0,*67
1513652715.53,58129,5.94,73146.8,-17.43,-44.07,-45.07,0,*67
1513652716.8,58130,5.94,73148.0,-17.43,-44.21,-45.07,0,*6B
1513652718.02,58131,5.94,73144.5,-17.43,-43.95,-44.87,0,*6B
1513652719.27,58132,5.94,73144.3,-17.43,-44.07,-44.93,0,*61
1513652720.52,58133,5.94,73144.8,-17.43,-44.07,-44.93,0,*60
1513652721.81,58134,5.94,73148.8,-17.45,-44.21,-45.07,0,*69
1513652723.05,58135,5.94,73144.3,-17.47,-44.33,-45.13,0,*6C
1513652724.34,58136,5.94,73146.5,-17.45,-44.01,-44.93,0,*65
1513652725.61,58137,5.94,73148.0,-17.45,-44.01,-44.87,0,*61
1513652726.88,58138,5.94,73146.8,-17.45,-44.21,-45.13,0,*60
1513652728.12,58139,5.94,73146.0,-17.45,-43.87,-44.87,0,*66
1513652729.38,58140,5.94,73142.0,-17.45,-44.07,-45.07,0,*6E
1513652730.65,58141,5.94,73140.8,-17.45,-44.07,-45.07,0,*6F
1513652731.86,58142,5.94,73150.5,-17.47,-44.07,-45.21,0,*6A
1513652733.16,58143,5.94,73154.0,-17.45,-44.21,-45.07,0,*69
1513652734.39,58144,5.94,73148.5,-17.47,-44.13,-45.13,0,*68
1513652735.69,58145,5.94,73148.3,-17.45,-44.01,-44.93,0,*61
1513652736.92,58146,5.94,73140.8,-17.47,-44.13,-44.99,0,*69
1513652738.17,58147,5.94,73140.5,-17.47,-44.07,-44.93,0,*67
1513652739.44,58148,5.94,73140.5,-17.45,-44.01,-44.87,0,*69
1513652740.71,58149,5.94,73140.5,-17.45,-44.01,-44.87,0,*68
1513652742.0,58150,5.94,73146.8,-17.45,-44.01,-44.93,0,*65
1513652743.24,58151,5.94,73146.5,-17.47,-44.13,-44.99,0,*6F
1513652744.5,58152,5.94,73146.5,-17.47,-44.13,-44.93,0,*66
1513652745.74,58153,5.94,73144.8,-17.47,-44.13,-45.13,0,*6E
1513652747.0,58154,5.94,73146.3,-17.45,-43.87,-44.93,0,*68
1513652748.21,58155,5.94,73146.3,-17.47,-44.07,-45.13,0,*6D
1513652749.43,58156,5.94,73150.3,-17.47,-44.07,-45.21,0,*6F
1513652750.67,58157,5.94,73148.0,-17.47,-43.95,-44.93,0,*6A
1513652751.94,58158,5.94,73150.5,-17.45,-43.87,-44.73,0,*6A
1513652753.17,58159,5.94,73144.3,-17.47,-44.13,-44.99,0,*67
1513652754.38,58160,5.94,73148.0,-17.47,-44.07,-45.13,0,*6B
1513652755.62,58161,5.94,73148.8,-17.47,-44.33,-45.21,0,*6C
1513652756.86,58162,5.94,73148.5,-17.47,-43.87,-44.73,0,*61
1513652758.07,58163,5.94,73146.5,-17.47,-43.95,-44.99,0,*67
1513652759.31,58164,5.94,73146.5,-17.47,-43.87,-44.73,0,*67
1513652760.54,58165,5.94,73148.5,-17.47,-43.87,-44.73,0,*66
1513652761.84,58166,5.94,73142.8,-17.45,-44.01,-44.93,0,*60
1513652763.05,58167,5.94,73144.8,-17.47,-44.07,-44.99,0,*6F
1513652764.29,58168,5.94,73140.8,-17.47,-44.13,-45.21,0,*67
1513652765.53,58169,5.94,73150.0,-17.47,-44.13,-45.13,0,*67
1513652766.77,58170,5.94,73144.0,-17.47,-44.13,-45.21,0,*6E
1513652768.01,58171,5.94,73146.0,-17.47,-43.95,-44.93,0,*6E
1513652769.23,58172,5.94,73146.8,-17.47,-44.27,-45.13,0,*6A
1513652770.47,58173,5.94,73142.0,-17.47,-44.13,-44.99,0,*6F
1513652771.68,58174,5.94,73144.3,-17.47,-44.07,-45.21,0,*6F
1513652772.9,58175,5.94,73144.0,-17.47,-44.07,-44.99,0,*6C
1513652774.13,58176,5.94,73148.3,-17.47,-44.13,-45.13,0,*69
1513652775.37,58177,5.94,73150.0,-17.49,-44.13,-44.99,0,*65
1513652776.61,58178,5.94,73146.3,-17.49,-44.13,-45.21,0,*68
1513652777.82,58179,5.94,73144.0,-17.49,-44.07,-45.13,0,*6D
1513652779.05,58180,5.94,73146.8,-17.47,-44.27,-45.21,0,*66
1513652780.26,58181,5.94,73146.8,-17.47,-44.07,-45.13,0,*64
1513652781.5,58182,5.94,73146.5,-17.49,-44.13,-45.13,0,*6C
1513652782.73,58183,5.94,73144.3,-17.49,-44.13,-45.13,0,*6D
1513652783.97,58184,5.94,73144.8,-17.47,-44.33,-45.33,0,*64
1513652785.2,58185,5.94,73146.8,-17.47,-44.13,-45.13,0,*65
1513652786.41,58186,5.94,73144.0,-17.49,-43.87,-44.79,0,*6F
1513652787.65,58187,5.94,73146.0,-17.51,-44.07,-44.99,0,*66
1513652788.88,58188,5.94,73142.3,-17.49,-44.27,-45.21,0,*60
1513652790.1,58189,5.94,73148.0,-17.49,-44.27,-45.33,0,*62
1513652791.33,58190,5.94,73150.0,-17.49,-44.27,-45.41,0,*6F
1513652792.54,58191,5.94,73144.8,-17.49,-44.07,-44.99,0,*68
1513652793.81,58192,5.94,73144.5,-17.51,-44.33,-45.21,0,*67
1513652795.05,58193,5.94,73146.8,-17.49,-44.13,-45.21,0,*6D
1513652796.32,58194,5.94,73150.5,-17.51,-44.13,-45.33,0,*60
1513652797.53,58195,5.94,73148.5,-17.49,-44.07,-45.13,0,*6F
1513652798.8,58196,5.94,73146.5,-17.51,-44.13,-45.33,0,*62
1513652800.02,58197,5.94,73148.3,-17.49,-44.27,-45.33,0,*6D
1513652801.27,58198,5.94,73144.0,-17.51,-44.27,-45.41,0,*6E
1513652802.51,58199,5.94,73146.8,-17.49,-44.33,-45.41,0,*63
1513652803.73,58200,5.94,73146.0,-17.49,-44.27,-45.33,0,*60
1513652805.0,58201,5.94,73142.5,-17.51,-44.33,-45.33,0,*6D
1513652806.26,58202,5.94,73144.3,-17.51,-44.13,-45.41,0,*69
1513652807.51,58203,5.94,73148.8,-17.51,-44.27,-45.33,0,*6A
1513652808.76,58204,5.94,73144.5,-17.49,-44.13,-45.21,0,*60
1513652810.01,58205,5.94,73148.3,-17.51,-44.27,-45.41,0,*69
1513652811.26,58206,5.94,73146.8,-17.51,-44.27,-45.33,0,*6F
1513652812.49,58207,5.94,73146.3,-17.53,-44.13,-45.21,0,*68
1513652813.74,58208,5.94,73148.8,-17.51,-44.27,-45.33,0,*61
1513652814.99,58209,5.94,73150.8,-17.51,-43.95,-45.21,0,*6D
1513652816.26,58210,5.94,73148.3,-17.51,-44.13,-45.21,0,*6C
1513652817.51,58211,5.94,73144.5,-17.51,-44.07,-45.21,0,*68
1513652818.77,58212,5.94,73144.3,-17.51,-44.13,-45.13,0,*6F
1513652820.01,58213,5.94,73146.8,-17.51,-44.07,-45.13,0,*6B
1513652821.25,58214,5.94,73146.0,-17.51,-44.07,-45.21,0,*6D
1513652822.5,58215,5.94,73144.3,-17.51,-44.07,-45.21,0,*6C
1513652823.74,58216,5.94,73144.5,-17.51,-43.95,-45.13,0,*62
1513652824.98,58217,5.94,73148.5,-17.51,-43.87,-44.79,0,*6D
1513652826.22,58218,5.94,73148.5,-17.51,-44.07,-45.21,0,*61
1513652827.47,58219,5.94,73146.5,-17.51,-44.27,-45.33,0,*61
1513652828.72,58220,5.94,73144.8,-17.51,-44.07,-45.21,0,*6A
1513652829.96,58221,5.94,73146.8,-17.51,-44.07,-45.13,0,*6A
1513652831.2,58222,5.94,73144.5,-17.51,-44.07,-45.33,0,*6B
1513652832.45,58223,5.94,73146.3,-17.51,-44.27,-45.41,0,*6D
1513652833.69,58224,5.94,73148.3,-17.51,-44.41,-45.41,0,*6A
1513652834.94,58225,5.94,73148.5,-17.53,-44.47,-45.61,0,*6D
1513652836.21,58226,5.94,73148.8,-17.51,-44.33,-45.53,0,*6E
1513652837.49,58227,5.94,73146.0,-17.55,-44.47,-45.47,0,*6D
1513652838.73,58228,5.94,73144.0,-17.55,-44.41,-45.33,0,*67
1513652839.97,58229,5.94,73146.3,-17.53,-44.01,-45.21,0,*67
1513652841.23,58230,5.94,73148.0,-17.53,-44.33,-45.47,0,*6E
1513652842.48,58231,5.94,73144.0,-17.55,-44.41,-45.53,0,*69
1513652843.74,58232,5.94,73146.8,-17.53,-44.47,-45.47,0,*6F
1513652845.01,58233,5.94,73146.3,-17.53,-44.21,-45.27,0,*68
1513652846.25,58234,5.94,73146.5,-17.53,-44.33,-45.61,0,*6E
1513652847.51,58235,5.94,73148.3,-17.55,-44.41,-45.47,0,*68
1513652848.73,58236,5.94,73144.3,-17.53,-44.27,-45.53,0,*68
1513652850.0,58237,5.94,73144.5,-17.55,-44.47,-45.41,0,*6A
1513652851.27,58238,5.94,73148.8,-17.55,-44.47,-45.53,0,*66
1513652852.51,58239,5.94,73144.8,-17.53,-44.21,-45.41,0,*62
1513652853.77,58240,5.94,73146.5,-17.53,-44.33,-45.47,0,*69
1513652855.01,58241,5.94,73150.8,-17.53,-44.47,-45.61,0,*6F
1513652856.26,58242,5.94,73146.8,-17.55,-44.27,-45.33,0,*6B
1513652857.55,58243,5.94,73148.8,-17.55,-44.21,-45.47,0,*6F
1513652858.76,58244,5.94,73144.8,-17.53,-44.41,-45.41,0,*6E
1513652860.0,58245,5.94,73146.3,-17.53,-44.47,-45.61,0,*6B
1513652861.24,58246,5.94,73146.3,-17.53,-44.41,-45.47,0,*6A
1513652862.49,58247,5.94,73144.0,-17.55,-44.27,-45.53,0,*68
1513652863.76,58248,5.94,73146.0,-17.55,-44.47,-45.53,0,*61
1513652864.97,58249,5.94,73144.5,-17.53,-44.41,-45.61,0,*61
1513652866.24,58250,5.94,73150.5,-17.55,-44.53,-45.73,0,*6F
1513652867.5,58251,5.94,73144.8,-17.55,-44.47,-45.67,0,*6E
1513652868.74,58252,5.94,73142.0,-17.53,-44.47,-45.67,0,*6B
1513652869.98,58253,5.94,73144.8,-17.55,-44.53,-45.67,0,*69
1513652871.22,58254,5.94,73144.0,-17.55,-44.41,-45.53,0,*6A
1513652872.44,58255,5.94,73146.0,-17.57,-44.41,-45.53,0,*69
1513652873.68,58256,5.94,73144.3,-17.61,-44.53,-45.73,0,*6E
1513652874.91,58257,5.94,73146.0,-17.57,-44.27,-45.53,0,*6B
1513652876.18,58258,5.94,73144.3,-17.57,-44.47,-45.73,0,*60
1513652877.42,58259,5.94,73146.8,-17.57,-44.47,-45.67,0,*64
1513652878.66,58260,5.94,73144.5,-17.57,-44.47,-45.67,0,*6E
1513652879.9,58261,5.94,73146.0,-17.57,-44.41,-45.47,0,*6B
1513652881.14,58262,5.94,73144.0,-17.57,-44.53,-45.73,0,*6C
1513652882.41,58263,5.94,73140.3,-17.61,-44.47,-45.73,0,*6D
1513652883.67,58264,5.94,73148.0,-17.57,-44.67,-45.73,0,*6D
1513652884.91,58265,5.94,73148.0,-17.57,-44.47,-45.67,0,*6B
1513652886.16,58266,5.94,73150.3,-17.57,-44.53,-45.73,0,*68
1513652887.37,58267,5.94,73148.0,-17.57,-44.41,-45.67,0,*6F
1513652888.58,58268,5.94,73144.5,-17.57,-44.41,-45.67,0,*60
1513652889.83,58269,5.94,73148.3,-17.61,-44.47,-45.53,0,*65
1513652891.05,58270,5.94,73148.0,-17.57,-44.41,-45.53,0,*6E
1513652892.27,58271,5.94,73146.8,-17.57,-44.41,-45.53,0,*6F
1513652893.52,58272,5.94,73142.5,-17.61,-44.61,-45.81,0,*64
1513652894.79,58273,5.94,73144.0,-17.57,-44.67,-45.73,0,*6B
1513652896.03,58274,5.94,73144.8,-17.57,-44.61,-45.73,0,*6A
1513652897.28,58275,5.94,73146.0,-17.61,-44.33,-45.53,0,*6B
1513652898.52,58276,5.94,73144.0,-17.57,-44.47,-45.67,0,*69